Weather History for Bowie, TX

Change the Weather History Date:

Sunday, March 31, 2013

  Actual Average (KSPS) Record (KSPS)
Temperature  
Mean Temperature 62 °F 58 °F  
Max Temperature 73 °F 72 °F 99 °F (1974)
Min Temperature 51 °F 45 °F 27 °F (1926)
Degree Days  
Heating Degree Days 3 8  
Month to date heating degree days 358  
Since 1 July heating degree days 2803  
Cooling Degree Days 0 1  
Month to date cooling degree days 19  
Year to date cooling degree days 22  
Growing Degree Days 12 (Base 50)    
Moisture  
Dew Point 49 °F    
Average Humidity 62    
Maximum Humidity 100    
Minimum Humidity 31    
Precipitation  
Precipitation 0.00 in 0.07 in 1.75 in (1916)
Month to date precipitation 2.20  
Year to date precipitation 5.09  
Snow  
Snow 0.00 in 0.00 in - ()
Month to date snowfall 0.5  
Since 1 July snowfall 3.9  
Snow Depth -    
Sea Level Pressure  
Sea Level Pressure 29.95 in    
Wind  
Wind Speed 5 mph (North)    
Max Wind Speed 21 mph    
Max Gust Speed 34 mph    
Visibility 10 miles    
Events      
T = Trace of Precipitation, MM = Missing Value Source: NWS Daily Summary

Daily Weather History Graph

Daily Weather History Graph

Search for Another Location

Airport:

Trip Planner

Search our weather history database for the weather conditions in past years. The results will help you decide how hot, cold, wet, or windy it might be!

Date:

Astronomy

Mar. 31, 2013 Rise Set
Actual Time 7:19 AM CDT 7:51 PM CDT
Civil Twilight 6:54 AM CDT 8:16 PM CDT
Nautical Twilight 6:25 AM CDT 8:45 PM CDT
Astronomical Twilight 5:55 AM CDT 9:15 PM CDT
Moon No Moon Rise 10:21 AM CDT (3/31)
Length of Visible Light 13h 21m
Length of Day
12h 31m
Waning Gibbous, 77% of the Moon is Illuminated
Mar 31
Waning Gibbous
Apr 2
Last Quarter
Apr 10
New
Apr 18
First Quarter
Apr 25
Full

Hourly Weather History & Observations

Time (CDT) Temp. Dew Point Humidity Pressure Visibility Wind Dir Wind Speed Gust Speed Precip Events Conditions
12:15 AM 64.4 °F 57.2 °F 77% 29.90 in 10.0 mi Calm Calm - N/A   Clear
12:35 AM 62.6 °F 57.2 °F 82% 29.89 in 10.0 mi Calm Calm - N/A   Clear
12:55 AM 62.6 °F 55.4 °F 77% 29.88 in 10.0 mi Calm Calm - N/A   Clear
1:15 AM 62.6 °F 55.4 °F 77% 29.88 in 10.0 mi ESE 4.6 mph - N/A   Clear
1:35 AM 62.6 °F 55.4 °F 77% 29.88 in 10.0 mi SE 4.6 mph - N/A   Clear
1:55 AM 62.6 °F 55.4 °F 77% 29.88 in 10.0 mi SE 3.5 mph - N/A   Clear
2:15 AM 62.6 °F 57.2 °F 82% 29.87 in 10.0 mi SE 5.8 mph - N/A   Clear
2:35 AM 60.8 °F 55.4 °F 82% 29.87 in 10.0 mi ESE 3.5 mph - N/A   Clear
2:55 AM 60.8 °F 55.4 °F 82% 29.86 in 10.0 mi ESE 3.5 mph - N/A   Clear
3:15 AM 59.0 °F 53.6 °F 82% 29.85 in 10.0 mi Calm Calm - N/A   Clear
3:35 AM 59.0 °F 53.6 °F 82% 29.84 in 10.0 mi ESE 4.6 mph - N/A   Clear
3:55 AM 59.0 °F 53.6 °F 82% 29.83 in 10.0 mi East 3.5 mph - N/A   Clear
4:15 AM 59.0 °F 57.2 °F 94% 29.82 in 10.0 mi ESE 5.8 mph - N/A   Clear
4:35 AM 60.8 °F 59.0 °F 94% 29.82 in 10.0 mi ESE 5.8 mph - N/A   Clear
4:55 AM 59.0 °F 59.0 °F 100% 29.81 in 10.0 mi ESE 4.6 mph - N/A   Clear
5:15 AM 59.0 °F 57.2 °F 94% 29.81 in 7.0 mi Calm Calm - N/A   Clear
5:35 AM 59.0 °F 57.2 °F 94% 29.81 in 7.0 mi ESE 3.5 mph - N/A   Clear
5:55 AM 59.0 °F 57.2 °F 94% 29.82 in 7.0 mi Calm Calm - N/A   Clear
6:15 AM 60.8 °F 60.8 °F 100% 29.88 in 10.0 mi NNW 17.3 mph 24.2 mph N/A   Mostly Cloudy
6:35 AM 60.8 °F 53.6 °F 77% 29.91 in 10.0 mi NNW 20.7 mph 34.5 mph N/A   Overcast
6:55 AM 60.8 °F 51.8 °F 72% 29.93 in 10.0 mi NNW 13.8 mph 24.2 mph N/A   Overcast
7:15 AM 59.0 °F 51.8 °F 77% 29.95 in 10.0 mi NNW 13.8 mph 21.9 mph N/A   Drizzle
7:35 AM 57.2 °F 55.4 °F 94% 29.94 in 10.0 mi North 11.5 mph 18.4 mph N/A   Overcast
7:55 AM 55.4 °F 55.4 °F 100% 29.95 in 10.0 mi NW 9.2 mph 16.1 mph N/A   Overcast
8:15 AM 57.2 °F 55.4 °F 94% 29.96 in 10.0 mi NNW 9.2 mph - N/A   Overcast
8:35 AM 59.0 °F 55.4 °F 88% 29.96 in 10.0 mi North 9.2 mph - N/A   Scattered Clouds
8:55 AM 60.8 °F 53.6 °F 77% 29.96 in 10.0 mi NNE 8.1 mph 16.1 mph N/A   Clear
9:15 AM 60.8 °F 51.8 °F 72% 29.98 in 10.0 mi North 11.5 mph 17.3 mph N/A   Scattered Clouds
9:35 AM 62.6 °F 51.8 °F 68% 29.99 in 10.0 mi NNE 8.1 mph - N/A   Mostly Cloudy
9:55 AM 62.6 °F 50.0 °F 63% 29.99 in 10.0 mi ENE 6.9 mph - N/A   Mostly Cloudy
10:15 AM 64.4 °F 50.0 °F 59% 30.00 in 10.0 mi North 10.4 mph - N/A   Scattered Clouds
10:35 AM 64.4 °F 50.0 °F 59% 30.01 in 10.0 mi North 9.2 mph 17.3 mph N/A   Clear
10:55 AM 66.2 °F 46.4 °F 49% 30.00 in 10.0 mi North 10.4 mph 18.4 mph N/A   Clear
11:15 AM 66.2 °F 46.4 °F 49% 29.99 in 10.0 mi NNE 6.9 mph 17.3 mph N/A   Clear
11:35 AM 68.0 °F 46.4 °F 46% 29.99 in 10.0 mi NNE 5.8 mph - N/A   Clear
11:55 AM 69.8 °F 44.6 °F 40% 29.99 in 10.0 mi NNE 6.9 mph - N/A   Clear
12:15 PM 69.8 °F 46.4 °F 43% 30.00 in 10.0 mi NNE 8.1 mph - N/A   Clear
12:35 PM 71.6 °F 46.4 °F 41% 30.01 in 10.0 mi North 9.2 mph - N/A   Clear
12:55 PM 69.8 °F 46.4 °F 43% 30.01 in 10.0 mi NNW 10.4 mph - N/A   Clear
1:15 PM 69.8 °F 46.4 °F 43% 30.02 in 10.0 mi NNW 9.2 mph - N/A   Clear
1:35 PM 71.6 °F 46.4 °F 41% 30.02 in 10.0 mi NNE 6.9 mph - N/A   Scattered Clouds
1:55 PM 71.6 °F 48.2 °F 43% 30.02 in 10.0 mi NNW 5.8 mph - N/A   Mostly Cloudy
2:15 PM 69.8 °F 46.4 °F 43% 30.01 in 10.0 mi North 6.9 mph - N/A   Mostly Cloudy
2:35 PM 73.4 °F 46.4 °F 38% 30.00 in 10.0 mi NNW 8.1 mph - N/A   Mostly Cloudy
2:55 PM 73.4 °F 46.4 °F 38% 30.00 in 10.0 mi NNW 4.6 mph - N/A   Scattered Clouds
3:15 PM 73.4 °F 46.4 °F 38% 29.99 in 10.0 mi NNW 9.2 mph - N/A   Clear
3:35 PM 73.4 °F 44.6 °F 36% 29.98 in 10.0 mi NNW 5.8 mph - N/A   Scattered Clouds
3:55 PM 73.4 °F 44.6 °F 36% 29.98 in 10.0 mi Calm Calm - N/A   Scattered Clouds
4:15 PM 73.4 °F 44.6 °F 36% 29.97 in 10.0 mi North 6.9 mph - N/A   Scattered Clouds
4:35 PM 73.4 °F 42.8 °F 33% 29.97 in 10.0 mi NNW 6.9 mph - N/A   Clear
4:55 PM 73.4 °F 41.0 °F 31% 29.96 in 10.0 mi NNW 8.1 mph - N/A   Clear
5:15 PM 73.4 °F 41.0 °F 31% 29.96 in 10.0 mi North 8.1 mph - N/A   Clear
5:35 PM 73.4 °F 41.0 °F 31% 29.96 in 10.0 mi North 6.9 mph - N/A   Clear
5:55 PM 71.6 °F 41.0 °F 33% 29.96 in 10.0 mi North 6.9 mph - N/A   Clear
6:15 PM 71.6 °F 39.2 °F 31% 29.95 in 10.0 mi NNW 5.8 mph - N/A   Clear
6:35 PM 71.6 °F 41.0 °F 33% 29.96 in 10.0 mi North 6.9 mph - N/A   Clear
6:55 PM 69.8 °F 37.4 °F 31% 29.96 in 10.0 mi NNW 6.9 mph - N/A   Clear
7:15 PM 69.8 °F 39.2 °F 33% 29.96 in 10.0 mi NNW 4.6 mph - N/A   Clear
7:35 PM 68.0 °F 41.0 °F 37% 29.96 in 10.0 mi NNW 3.5 mph - N/A   Clear
8:15 PM 62.6 °F 41.0 °F 45% 29.97 in 10.0 mi Calm Calm - N/A   Clear
8:35 PM 60.8 °F 41.0 °F 48% 29.97 in 10.0 mi Calm Calm - N/A   Clear
8:55 PM 59.0 °F 41.0 °F 51% 29.98 in 10.0 mi Calm Calm - N/A   Clear
9:15 PM 57.2 °F 42.8 °F 59% 29.99 in 10.0 mi Calm Calm - N/A   Clear
9:35 PM 55.4 °F 42.8 °F 63% 29.99 in 10.0 mi Calm Calm - N/A   Clear
9:55 PM 53.6 °F 42.8 °F 67% 30.00 in 10.0 mi Calm Calm - N/A   Clear
10:15 PM 53.6 °F 42.8 °F 67% 30.00 in 10.0 mi Calm Calm - N/A   Clear
10:35 PM 51.8 °F 42.8 °F 71% 30.00 in 10.0 mi Calm Calm - N/A   Clear
10:55 PM 51.8 °F 42.8 °F 71% 30.01 in 10.0 mi WNW 4.6 mph - N/A   Clear
11:15 PM 51.8 °F 42.8 °F 71% 30.00 in 10.0 mi WNW 3.5 mph - N/A   Clear
11:35 PM 53.6 °F 42.8 °F 67% 30.00 in 10.0 mi WNW 5.8 mph - N/A   Clear